STARLINK-32922 (62926 NORAD) Tracking and Keplerian Element Data

This shows tracking and keplerian element data for the satellite.

Feedback or suggestion? Click here.




ElementValue
Catalog62926
NameSTARLINK-32922
Epoch Orbit4935
Epoch Day354.0041423
Epoch Year2025
RAAN219.0453
Inclination42.9986
Eccentricity0.0001308
Argument of Perigee277.5635
Mean Anonmoly82.5068
Mean Motion15.27579363
Decay Rate7.308E-05
L11 62926U 25027V 25354.00414230 .00007308 00000+0 27484-3 0 9999
L22 62926 42.9986 219.0453 0001308 277.5635 82.5068 15.27579363 49354



Live tracking and technical data element details for STARLINK-32922 (NORAD 62926). STARLINK-32922 can be tracked NOW for your location showing map with azimuth and elevation plus other details from your city location.







IsCatalogInMostPopularTable: catalog: 62926, numindb: 2
Update: records affected: 1



GetName: 62926 STARLINK-32922

Hit Count: updated at: Mon, 09 Feb 2026 09:36:52 GMT